Tracking 29777 objects as of 5-Oct-2024
HD Live streaming from Space Station
objects crossing your sky now

STARLINK-4727

Track STARLINK-4727 now!
10-day predictions
STARLINK-4727 is classified as:


NORAD ID: 53803
Int'l Code: 2022-111AG
Perigee: 546.1 km
Apogee: 547.7 km
Inclination: 53.2 °
Period: 95.4 minutes
Semi major axis: 6917 km
RCS: Unknown
Launch date: September 11, 2022
Source: United States (US)
Launch site: AIR FORCE EASTERN TEST RANGE (AFETR)
Your satellite tracking list
Your tracking list is empty




NASA's NSSDC Master Catalog

Two Line Element Set (TLE):
1 53803U 22111AG  24278.82760624  .00001177  00000-0  92032-4 0  9990
2 53803  53.2171  67.4042 0001134  82.9954 277.1167 15.08841349115392
Source of the keplerian elements: AFSPC